Regional Weather Roundup
Issued by NWS Charleston, WV

Home | Current Version | Previous Version | Text Only | Print | Product List | Glossary Off
Versions: 1 2 3 4 5 6 7 8 9 10 11 12 13 14 15 16 17 18 19 20 21 22 23 24 25 26 27 28 29 30 31 32 33 34 35 36 37 38 39 40 41 42 43 44 45 46 47 48

000
ASUS41 KRLX 310410
RWRRLX
West Virginia Regional Weather Roundup
National Weather Service Charleston WV
1200 AM EDT MON AUG 31 2015

Note: "fair" indicates few or no clouds below 12,000 feet with no
significant weather and/or obstructions to visibility.

WVZ003-310500-
Northern Panhandle of West Virginia

CITY           SKY/WX    TMP DP  RH WIND       PRES   REMARKS
WHEELING       MOCLDY    69  65  86 SW3       30.12R
$$

WVZ009-310500-
Northwest West Virginia

CITY           SKY/WX    TMP DP  RH WIND       PRES   REMARKS
PARKERSBURG    MOCLDY    70  66  87 SE3       30.13S
$$

WVZ006-310500-
Western West Virginia

CITY           SKY/WX    TMP DP  RH WIND       PRES   REMARKS
HUNTINGTON     MOCLDY    69  66  90 CALM      30.11S
$$

WVZ015-310500-
West Central West Virginia

CITY           SKY/WX    TMP DP  RH WIND       PRES   REMARKS
CHARLESTON     MOCLDY    69  67  93 CALM      30.12S FOG
$$

WVZ022-031-310500-
North Central West Virginia

CITY           SKY/WX    TMP DP  RH WIND       PRES   REMARKS
CLARKSBURG     CLOUDY    72  67  84 CALM      30.13S
MORGANTOWN     CLOUDY    73  67  81 CALM      30.14R
$$

WVZ025-035-042-045-310500-
Southern West Virginia

CITY           SKY/WX    TMP DP  RH WIND       PRES   REMARKS
BECKLEY        CLOUDY    68  60  75 S7        30.20F
LOGAN            N/A     70  68  94 CALM      30.15S
BLUEFIELD      CLOUDY    70  58  65 SE5       30.22S
LEWISBURG      CLOUDY    68  65  88 CALM      30.20F
$$

WVZ047-310500-
Northern Mountains of West Virginia

CITY           SKY/WX    TMP DP  RH WIND       PRES   REMARKS
ELKINS         CLOUDY    67  62  84 CALM      30.19S
$$

WVZ052-310500-
Eastern Panhandle of West Virginia

CITY           SKY/WX    TMP DP  RH WIND       PRES   REMARKS
MARTINSBURG    CLOUDY    75  63  66 CALM      30.09S
PETERSBURG     CLOUDY    68  67  98 CALM      30.14S FOG
$$



USA.gov is the U.S. government's official web portal to all federal, state and local government web resources and services.